Location: Passo di Treia
(43.2833°N, 13.3333°E)
Time: 08:20:25
(UTC+00:00)

Cosmos 1441 Rocket - Pass Details

Date: 09 December 2019
Orbit: 496 x 541 km, 81.1° (Epoch: 18 January)

Event Time Altitude Azimuth Distance (km) Brightness Sun altitude
Rises 16:46:19 0° 359° (N) 2,649 6.6 -13.2°
Reaches altitude 10° 16:48:39 10° 9° (N) 1,748 5.6 -13.6°
Maximum altitude 16:52:07 32° 74° (ENE) 902 3.8 -14.2°
Drops below altitude 10° 16:55:30 10° 138° (SE) 1,713 5.6 -14.8°
Sets 16:57:46 0° 149° (SSE) 2,585 6.6 -15.2°
